Torna al catalogo

HO-113

XW-3

AttivoRadioamatoreSSO
NORAD 50466·PAYLOAD·🇨🇳 China

Lanciato Dec 26, 2021 da Taiyuan Satellite Launch Center

Loading…

Prossimi Passaggi (prossime 24 ore)

TLE

AggiornatoSource: AMSAT

Epoca: Sep 14, 2026, 14:28 UTC

1 50466U 21131B   26257.60313410  .00000385  00000-0  13242-3 0  9990
2 50466  98.4979 349.5066 0004060 173.2704 186.8540 14.41424867247990

Traccia HO-113 in tempo reale con AllMySat

Download on the App Store